Waarnemingen

Advertentie
Mijn weer
Aurillac, Frankrijk (7549): temperatuur & dauwpunt: 11.10.2019 11:00:00 - 17.10.2019 11:00:00 (CEST)Aurillac, Frankrijk (7549): temperatuur 5cm: 11.10.2019 11:00:00 - 17.10.2019 11:00:00 (CEST)Aurillac, Frankrijk (7549): temperatuur -20cm & temperatuur -100cm: 11.10.2019 11:00:00 - 17.10.2019 11:00:00 (CEST)Aurillac, Frankrijk (7549): windsnelheid & windstoten: 11.10.2019 11:00:00 - 17.10.2019 11:00:00 (CEST)Aurillac, Frankrijk (7549): windrichting: 11.10.2019 11:00:00 - 17.10.2019 11:00:00 (CEST)Aurillac, Frankrijk (7549): luchtdruk: 11.10.2019 11:00:00 - 17.10.2019 11:00:00 (CEST)Aurillac, Frankrijk (7549): zicht: 11.10.2019 11:00:00 - 17.10.2019 11:00:00 (CEST)Aurillac, Frankrijk (7549): Zonneschijnduur: 11.10.2019 11:00:00 - 17.10.2019 11:00:00 (CEST)Aurillac, Frankrijk (7549): neerslag: 11.10.2019 11:00:00 - 17.10.2019 11:00:00 (CEST)
Datum & Tijd tt [°C] td [°C] tt 5cm [°C] tt -20cm [°C] tt -100cm [°C] ff [km/u] ff [kn] fx [km/u] fx [kn] dd ppp [hPa] vv [km] sd [min] rr [mm]
17.10.2019 11:00:00 - - - - - - - - - - - - - -
17.10.2019 10:00:00 12,3 8,4 10,6 13,5 15,4 8 4 18 10 OZO 1015,6 28 0 0,0
17.10.2019 09:00:00 12,0 7,5 10,6 13,5 15,4 8 4 20 11 O 1015,5 46 0 0,0
17.10.2019 08:00:00 11,8 6,9 10,2 13,6 15,4 13 7 19 10 O 1014,9 49 0 0,0
17.10.2019 07:00:00 11,1 7,0 9,1 13,6 15,4 - - 13 7 - 1015,2 51 0 0,0
17.10.2019 06:00:00 11,0 7,3 9,5 13,6 15,4 10 5 17 9 O 1015,3 57 0 0,0
17.10.2019 05:00:00 11,3 7,6 8,6 13,7 15,4 10 5 15 8 OZO 1015,4 60 0 0,0
17.10.2019 04:00:00 10,4 8,0 8,8 13,7 15,4 10 5 18 10 O 1016,0 60 0 0,0
17.10.2019 03:00:00 11,0 8,4 9,4 13,8 15,4 8 4 18 10 OZO 1016,5 60 0 0,0
17.10.2019 02:00:00 10,6 8,7 9,7 13,8 15,4 11 6 18 10 O 1016,3 60 0 0,0
17.10.2019 01:00:00 10,5 8,8 9,3 13,8 15,4 10 5 15 8 O 1016,7 60 0 0,0
17.10.2019 00:00:00 10,8 8,7 8,1 13,8 15,4 12 6 18 10 O 1016,8 60 0 0,0
16.10.2019 23:00:00 9,7 8,5 7,9 13,8 15,4 10 6 15 8 O 1017,0 58 0 0,0
16.10.2019 22:00:00 10,1 8,9 8,1 13,8 15,4 10 6 15 8 O 1016,4 56 0 0,0
16.10.2019 21:00:00 10,8 9,4 9,2 13,7 15,4 9 5 11 6 O 1016,0 59 0 0,0
16.10.2019 20:00:00 11,9 9,5 9,7 13,6 15,4 4 2 9 5 OZO 1015,4 60 0 0,0
16.10.2019 19:00:00 13,5 9,5 11,8 13,5 15,4 3 2 7 4 ZZO 1015,1 46 0 0,0
16.10.2019 18:00:00 15,1 7,9 14,8 13,4 15,4 4 2 16 8 WZW 1014,7 60 0 0,0
16.10.2019 17:00:00 16,7 8,1 17,1 13,3 15,4 8 4 19 10 ZW 1013,9 59 44 0,0
16.10.2019 16:00:00 17,0 7,3 19,6 13,2 15,4 9 5 20 11 ZZW 1014,4 60 60 0,0
16.10.2019 15:00:00 16,3 7,2 18,3 13,2 15,5 10 5 24 13 Z 1014,9 60 60 0,0
16.10.2019 14:00:00 16,1 6,8 19,3 13,2 15,4 12 6 24 13 Z 1015,3 60 60 0,0
16.10.2019 13:00:00 15,0 8,2 15,5 13,2 15,4 13 7 33 18 ZZO 1016,5 53 60 0,0
16.10.2019 12:00:00 13,0 8,7 14,9 13,3 15,4 18 10 32 18 ZO 1017,2 60 60 0,0
16.10.2019 11:00:00 11,7 7,8 13,3 13,4 15,4 11 6 21 11 ZO 1017,6 60 60 0,0
16.10.2019 10:00:00 9,8 8,1 8,0 13,5 15,4 11 6 22 12 O 1018,2 60 60 0,0
16.10.2019 09:00:00 7,2 6,8 4,5 13,6 15,4 11 6 19 10 O 1018,6 48 32 0,0
16.10.2019 08:00:00 6,1 6,0 2,4 13,7 15,4 9 5 15 8 ZO 1019,2 35 0 0,0
16.10.2019 07:00:00 6,5 6,5 2,3 13,8 15,5 5 3 10 6 OZO 1019,0 29 0 0,0
16.10.2019 06:00:00 6,4 6,3 3,1 13,8 15,4 8 4 11 6 OZO 1018,8 20 0 0,0
16.10.2019 05:00:00 7,2 7,1 4,4 13,9 15,5 9 5 13 7 O 1018,7 24 0 0,0
16.10.2019 04:00:00 7,5 7,4 4,3 14,0 15,4 10 6 13 7 O 1018,7 20 0 0,0
16.10.2019 03:00:00 7,1 6,8 4,1 14,1 15,5 5 3 8 4 OZO 1019,3 16 0 0,0
16.10.2019 02:00:00 8,5 7,9 7,0 14,2 15,5 4 2 8 4 ZO 1019,5 40 0 0,0
16.10.2019 01:00:00 9,0 8,1 8,5 14,2 15,5 0 0 7 4 N 1019,5 45 0 0,0
16.10.2019 00:00:00 8,9 8,0 6,4 14,3 15,4 3 1 8 4 ZO 1019,6 44 0 0,0
15.10.2019 23:00:00 9,1 8,0 8,0 14,3 15,4 5 3 17 9 ZW 1019,5 46 0 0,0
15.10.2019 22:00:00 9,8 8,7 8,5 14,4 15,5 7 4 18 10 WZW 1019,0 41 0 0,0
15.10.2019 21:00:00 9,1 8,0 8,0 14,4 15,4 8 4 16 9 WZW 1018,5 44 0 0,0
15.10.2019 20:00:00 8,8 8,2 5,7 14,4 15,5 4 2 11 6 Z 1018,4 39 0 0,0
15.10.2019 19:00:00 9,4 7,3 8,6 14,4 15,4 5 3 20 11 WZW 1017,6 48 38 0,0
15.10.2019 18:00:00 10,5 7,4 9,7 14,4 15,5 16 8 30 16 W 1016,3 19 12 0,2
15.10.2019 17:00:00 12,3 7,8 12,5 14,4 15,4 13 7 32 17 W 1015,3 50 46 0,0
15.10.2019 16:00:00 11,4 7,9 9,9 14,5 15,5 15 8 29 16 W 1015,3 29 19 0,0
15.10.2019 15:00:00 10,7 7,6 10,5 14,5 15,5 16 9 34 19 W 1015,2 39 30 0,0
15.10.2019 14:00:00 9,4 8,5 9,2 14,5 15,4 10 6 39 21 WNW 1015,5 13 0 0,6
15.10.2019 13:00:00 9,6 8,4 9,6 14,6 15,5 20 11 37 20 W 1014,9 8 0 0,8
15.10.2019 12:00:00 9,8 9,0 8,7 14,7 15,5 12 7 25 13 WZW 1014,3 10 0 0,4
15.10.2019 11:00:00 8,8 7,9 8,5 14,8 15,5 10 5 29 16 WZW 1014,3 8 0 1,4
15.10.2019 10:00:00 8,7 7,9 8,4 15,0 15,5 13 7 33 18 WZW 1013,5 8 0 2,0
15.10.2019 09:00:00 8,8 8,3 8,7 15,0 15,5 10 6 26 14 WNW 1012,5 2,4 0 1,1
15.10.2019 08:00:00 9,5 8,9 9,1 15,1 15,4 13 7 27 15 W 1011,6 3,7 0 3,4
15.10.2019 07:00:00 9,8 9,0 9,3 15,2 15,4 4 2 16 8 Z 1011,3 15 0 0,6
15.10.2019 06:00:00 10,0 9,4 9,6 15,3 15,5 6 4 15 8 W 1010,8 12 0 0,8
15.10.2019 05:00:00 10,1 9,6 9,8 15,3 15,5 2 1 9 5 Z 1010,7 52 0 0,0
15.10.2019 04:00:00 10,0 9,7 9,7 15,3 15,4 5 3 10 6 ZW 1010,6 60 0 0,0
15.10.2019 03:00:00 10,2 9,9 10,0 15,4 15,5 6 3 9 5 WZW 1010,8 9 0 0,6
15.10.2019 02:00:00 10,2 9,7 10,0 15,5 15,5 3 2 21 12 WNW 1010,0 16 0 2,6
15.10.2019 01:00:00 10,5 10,2 10,3 15,5 15,5 5 3 34 19 NNW 1010,1 6 0 5,9
15.10.2019 00:00:00 11,5 10,4 10,7 15,5 15,5 15 8 48 26 W 1010,3 7 0 0,8
14.10.2019 23:00:00 16,6 13,7 14,8 15,4 15,4 26 14 50 27 ZO 1006,9 19 0 0,0
14.10.2019 22:00:00 16,4 13,1 14,3 15,4 15,5 24 13 66 35 ZO 1007,2 36 0 0,0
14.10.2019 21:00:00 16,8 13,3 14,5 15,4 15,5 32 18 57 31 ZO 1007,8 20 0 0,2
14.10.2019 20:00:00 16,9 13,4 14,6 15,3 15,5 25 13 48 26 ZO 1008,9 32 0 0,4
14.10.2019 19:00:00 17,6 13,3 15,2 15,3 15,5 20 11 39 21 ZO 1009,6 18 0 0,2
14.10.2019 18:00:00 18,7 13,3 17,5 15,2 15,5 19 11 62 33 ZZO 1009,6 40 0 0,0
14.10.2019 17:00:00 19,2 12,9 18,8 15,1 15,5 36 20 71 38 ZO 1008,5 25 0 0,0
14.10.2019 16:00:00 19,7 12,9 19,1 15,0 15,5 38 21 77 42 ZO 1008,9 20 6 0,0
14.10.2019 15:00:00 19,2 13,1 19,1 15,0 15,5 39 21 77 42 ZO 1009,2 39 0 0,0
14.10.2019 14:00:00 19,5 13,2 19,7 14,9 15,5 34 19 69 37 ZO 1009,4 29 21 0,0
14.10.2019 13:00:00 20,4 13,8 21,7 14,9 15,5 31 17 64 34 ZO 1010,2 19 60 0,0
14.10.2019 12:00:00 19,8 13,5 21,0 15,0 15,5 31 17 53 29 OZO 1011,0 20 60 0,0
14.10.2019 11:00:00 19,0 13,4 19,5 15,0 15,5 28 15 52 28 OZO 1011,7 20 60 0,0
14.10.2019 10:00:00 17,8 12,3 16,5 15,0 15,5 22 12 46 25 OZO 1012,6 24 60 0,0
14.10.2019 09:00:00 16,3 11,9 14,3 15,1 15,5 26 14 49 26 OZO 1013,1 31 34 0,0
14.10.2019 08:00:00 15,6 11,6 14,0 15,1 15,5 23 12 49 26 ZO 1013,5 42 0 0,0
14.10.2019 07:00:00 15,9 11,3 14,3 15,1 15,5 25 14 49 26 OZO 1013,4 45 0 0,0
14.10.2019 06:00:00 15,7 11,1 14,2 15,2 15,5 24 13 49 26 OZO 1013,4 46 0 0,0
14.10.2019 05:00:00 15,6 11,2 14,1 15,2 15,5 26 14 53 29 OZO 1013,4 47 0 0,0
14.10.2019 04:00:00 15,6 11,0 13,7 15,3 15,5 19 10 48 26 OZO 1013,8 51 0 0,0
14.10.2019 03:00:00 16,1 11,7 14,7 15,3 15,5 29 16 51 28 OZO 1014,2 47 0 0,0
14.10.2019 02:00:00 16,4 12,0 14,7 15,3 15,5 26 14 50 27 OZO 1014,6 49 0 0,0
14.10.2019 01:00:00 16,1 11,7 14,4 15,4 15,5 19 11 41 22 OZO 1015,3 53 0 0,0
14.10.2019 00:00:00 16,3 11,4 14,1 15,4 15,5 27 14 48 26 OZO 1015,4 52 0 0,0
13.10.2019 23:00:00 16,0 11,8 14,1 15,4 15,5 19 10 47 25 OZO 1015,8 53 0 0,0
13.10.2019 22:00:00 16,2 12,2 14,5 15,3 15,5 22 12 43 23 OZO 1015,6 51 0 0,0
13.10.2019 21:00:00 16,3 12,3 14,7 15,3 15,5 22 12 43 23 OZO 1015,6 52 0 0,0
13.10.2019 20:00:00 16,5 12,3 14,7 15,2 15,5 18 10 42 23 OZO 1015,3 51 0 0,0
13.10.2019 19:00:00 16,9 12,4 15,5 15,1 15,5 18 10 40 21 ZO 1015,3 53 46 0,0
13.10.2019 18:00:00 18,4 13,0 18,9 15,0 15,5 25 14 49 26 OZO 1014,6 43 60 0,0
13.10.2019 17:00:00 19,0 13,2 19,7 14,8 15,5 25 14 49 27 ZO 1014,4 28 60 0,0
13.10.2019 16:00:00 19,8 13,7 21,3 14,7 15,5 23 13 50 27 ZO 1014,6 20 60 0,0
13.10.2019 15:00:00 19,3 13,5 20,7 14,6 15,5 34 18 54 29 ZO 1014,9 21 60 0,0
13.10.2019 14:00:00 19,6 13,8 22,2 14,6 15,5 27 15 46 25 ZO 1015,2 20 60 0,0
13.10.2019 13:00:00 19,9 14,0 21,8 14,6 15,5 23 13 48 26 ZO 1015,6 19 60 0,0
13.10.2019 12:00:00 19,3 13,5 18,7 14,6 15,5 22 12 56 30 ZO 1015,4 25 55 0,0
13.10.2019 11:00:00 18,6 13,5 19,1 14,6 15,6 31 17 57 31 ZO 1014,9 29 60 0,0
13.10.2019 10:00:00 17,3 13,0 16,3 14,6 15,5 29 16 52 28 ZO 1015,1 38 60 0,0
13.10.2019 09:00:00 16,0 12,2 13,7 14,7 15,5 28 15 48 26 OZO 1015,0 36 35 0,0
13.10.2019 08:00:00 15,0 11,8 13,0 14,7 15,6 20 11 34 18 OZO 1015,2 59 0 0,0
13.10.2019 07:00:00 14,5 10,7 12,8 14,8 15,5 20 11 36 19 O 1015,1 60 0 0,0
13.10.2019 06:00:00 14,6 10,6 12,9 14,8 15,6 19 10 37 20 OZO 1015,4 60 0 0,0
13.10.2019 05:00:00 15,0 11,0 13,3 14,8 15,5 21 11 37 20 OZO 1015,6 60 0 0,0
13.10.2019 04:00:00 15,2 11,2 13,7 14,8 15,5 19 10 39 21 OZO 1015,9 60 0 0,0
13.10.2019 03:00:00 15,4 11,4 13,9 14,8 15,6 20 11 42 23 OZO 1016,4 60 0 0,0
13.10.2019 02:00:00 15,5 12,1 13,9 14,8 15,6 20 11 37 20 OZO 1016,5 58 0 0,0
13.10.2019 01:00:00 16,1 12,6 14,3 14,8 15,6 16 9 41 22 OZO 1016,8 59 0 0,0
13.10.2019 00:00:00 15,9 12,5 14,4 14,8 15,6 15 8 38 21 OZO 1016,9 60 0 0,0
12.10.2019 23:00:00 16,0 12,7 14,7 14,7 15,6 18 10 33 18 OZO 1016,9 60 0 0,0
12.10.2019 22:00:00 16,3 13,0 14,9 14,7 15,6 17 9 32 18 OZO 1016,7 60 0 0,0
12.10.2019 21:00:00 16,2 13,1 14,9 14,6 15,6 16 9 34 18 O 1016,5 59 0 0,0
12.10.2019 20:00:00 16,6 13,3 15,2 14,5 15,6 16 9 40 22 OZO 1016,3 57 0 0,0
12.10.2019 19:00:00 17,5 13,4 16,5 14,3 15,6 19 11 38 20 OZO 1015,8 58 17 0,0
12.10.2019 18:00:00 19,1 14,4 18,6 14,2 15,6 19 10 39 21 OZO 1015,4 55 31 0,0
12.10.2019 17:00:00 19,8 15,0 20,1 14,0 15,6 15 8 39 21 ZO 1015,0 54 37 0,0
12.10.2019 16:00:00 20,7 15,5 21,5 13,9 15,6 19 11 39 21 ZO 1015,1 54 39 0,0
12.10.2019 15:00:00 21,2 15,5 21,1 13,8 15,6 22 12 45 24 ZO 1014,9 60 44 0,0
12.10.2019 14:00:00 19,9 15,3 20,7 13,7 15,6 18 10 41 22 ZO 1015,6 60 13 0,0
12.10.2019 13:00:00 19,9 15,3 20,3 13,7 15,6 18 10 36 19 ZO 1016,3 60 27 0,0
12.10.2019 12:00:00 19,8 15,2 17,8 13,7 15,6 22 12 50 27 ZO 1016,1 57 16 0,0
12.10.2019 11:00:00 18,0 14,3 16,1 13,8 15,6 13 7 37 20 ZO 1016,6 56 0 0,0
12.10.2019 10:00:00 16,6 13,1 14,7 13,8 15,6 17 9 28 15 OZO 1016,2 59 0 0,0
12.10.2019 09:00:00 15,6 12,0 13,6 13,8 15,6 11 6 28 15 O 1016,2 57 0 0,0
12.10.2019 08:00:00 14,7 10,9 12,6 13,9 15,7 16 9 27 15 O 1015,8 60 0 0,0
12.10.2019 07:00:00 13,8 10,2 11,9 13,9 15,7 16 9 25 13 O 1016,4 60 0 0,0
12.10.2019 06:00:00 14,1 9,7 11,8 14,0 15,7 17 9 26 14 O 1016,8 60 0 0,0
12.10.2019 05:00:00 13,5 9,0 11,5 14,0 15,7 18 10 27 15 O 1017,3 60 0 0,0
12.10.2019 04:00:00 13,1 8,8 11,0 14,1 15,7 21 11 27 15 O 1017,6 60 0 0,0
12.10.2019 03:00:00 12,5 8,6 10,7 14,1 15,7 18 10 24 13 O 1018,6 60 0 0,0
12.10.2019 02:00:00 12,6 8,5 11,0 14,1 15,7 16 9 32 17 O 1018,9 56 0 0,0
12.10.2019 01:00:00 13,6 8,8 11,6 14,1 15,7 17 9 35 19 O 1018,7 60 0 0,0
12.10.2019 00:00:00 13,9 8,5 11,9 14,1 15,7 18 10 32 17 O 1018,8 60 0 0,0
11.10.2019 23:00:00 14,3 8,3 11,7 14,1 15,7 18 10 25 14 O 1018,5 60 0 0,0
11.10.2019 22:00:00 14,3 8,3 11,5 14,1 15,7 16 9 24 13 O 1018,2 58 0 0,0
11.10.2019 21:00:00 15,3 9,0 11,7 13,9 15,7 14 8 21 11 O 1017,8 47 0 0,0
11.10.2019 20:00:00 15,4 9,3 10,9 13,8 15,7 11 6 19 10 O 1017,9 33 0 0,0
11.10.2019 19:00:00 16,5 10,1 13,3 13,7 15,7 8 4 17 9 ZO 1017,3 20 51 0,0
11.10.2019 18:00:00 19,9 10,9 20,8 13,5 15,7 9 5 20 11 ZO 1016,5 60 60 0,0
11.10.2019 17:00:00 20,8 11,1 22,2 13,4 15,7 8 5 21 11 ZO 1016,5 60 60 0,0
11.10.2019 16:00:00 20,8 10,6 23,1 13,3 15,7 8 5 25 14 ZZO 1016,8 60 60 0,0
11.10.2019 15:00:00 20,2 10,3 22,3 13,2 15,7 12 6 27 15 ZO 1017,5 37 60 0,0
11.10.2019 14:00:00 19,1 10,1 21,4 13,2 15,7 16 9 27 15 ZO 1018,5 36 60 0,0
11.10.2019 13:00:00 17,8 9,2 20,0 13,2 15,7 16 9 35 19 OZO 1019,3 40 60 0,0
11.10.2019 12:00:00 16,8 9,2 18,4 13,3 15,7 14 7 27 15 ZO 1020,0 41 60 0,0
11.10.2019 11:00:00 14,6 8,8 15,2 13,4 15,7 15 8 21 12 OZO 1020,6 20 60 0,0

tt = temperatuur
td = dauwpunt
tt 5cm = temperatuur 5cm
tt -20cm = temperatuur -20cm
tt -100cm = temperatuur -100cm
ff = windsnelheid
fx = windstoten
dd = windrichting
ppp = luchtdruk
vv = zicht
sd = Zonneschijnduur
rr = neerslag

Weerstations in de omgeving